Temperature
25 24 23 24 25 25 25 24 24 25 25 25 24 23 23 23 23 22 22 22 21 21 20 20 20 19 19 19 19 18 18 17 17 17 17 17 16 16 16 16 16 16 16 16
24 24 25 26 26 25 25 24 24 25 25 25 24 24 24 24 23 23 22 22 22 21 21 20 20 19 19 19 19 18 18 17 17 17 17 17 16 16 16 16 16 16 16 16
24 25 26 25 25 25 25 24 24 24 25 25 24 23 24 24 24 23 23 22 22 21 21 20 20 19 19 19 18 18 18 17 17 17 17 16 16 16 16 16 16 16 16 16
25 25 25 25 25 25 24 25 25 24 23 23 24 22 23 24 23 23 23 22 22 22 21 20 20 19 19 19 18 18 18 17 17 17 17 17 16 16 16 16 16 16 16 16
24 25 25 24 25 25 25 25 25 25 24 23 24 23 23 24 23 23 23 23 22 22 21 21 20 19 19 19 18 18 18 18 17 17 17 16 16 16 16 16 16 16 16 16
25 26 25 25 26 25 25 24 24 24 23 22 24 23 23 24 24 24 24 23 22 22 21 21 20 20 19 19 18 18 18 17 17 17 17 16 16 16 16 16 16 16 16 16
23 24 25 25 25 25 24 23 21 21 21 22 25 24 24 25 26 25 24 23 23 22 22 21 20 20 19 19 18 18 18 17 17 17 17 16 16 16 16 16 16 16 16 16
22 23 25 25 24 24 24 23 21 21 22 23 24 24 24 26 26 25 24 24 23 22 22 21 20 20 19 19 18 18 17 17 17 17 17 17 16 16 16 16 16 16 15 15
22 23 25 25 25 25 24 24 24 23 23 23 24 24 25 25 25 25 25 24 23 22 22 21 21 20 19 18 18 18 17 17 17 17 17 17 16 16 16 16 16 15 15 15
23 22 23 24 24 24 25 24 24 23 22 22 23 23 23 24 24 25 24 24 23 23 22 21 21 20 19 19 18 18 17 17 17 17 17 17 16 16 16 16 16 15 15 15
23 22 22 23 23 23 24 24 23 23 23 22 21 22 25 24 25 24 24 24 23 23 22 21 21 20 19 19 18 18 17 17 17 17 17 17 16 16 16 16 16 15 15 15
22 21 21 22 24 24 24 24 23 21 22 23 22 22 26 25 25 25 24 24 23 23 22 21 21 20 19 19 18 18 18 17 17 17 17 16 16 16 16 16 16 16 15 15
21 21 20 21 22 23 23 23 23 23 22 22 21 22 25 25 24 24 24 23 23 22 22 21 21 20 19 19 18 18 18 17 17 17 17 16 16 16 16 15 15 15 15 15
21 20 20 20 21 22 22 22 23 22 21 22 22 22 23 24 23 23 23 23 22 22 22 21 20 20 19 19 19 18 18 18 17 17 17 16 16 16 16 15 15 15 15 15
21 20 21 22 22 22 22 22 22 22 22 22 22 22 23 23 23 23 23 22 22 21 21 21 20 20 19 19 19 18 18 18 17 17 17 16 16 16 16 15 15 15 15 15
21 20 21 21 22 22 21 22 22 22 22 22 23 22 23 23 23 22 22 22 21 21 21 21 20 20 19 19 19 18 18 18 17 17 16 16 16 16 16 15 15 15 15 15
20 20 20 20 21 21 20 21 22 22 22 23 22 22 23 23 22 22 21 21 21 21 20 20 20 20 19 19 19 18 18 18 17 17 16 16 16 16 16 15 15 15 15 15
20 20 19 19 20 18 21 22 22 22 22 23 23 22 22 22 22 21 21 21 20 20 20 20 19 19 19 19 19 18 18 18 17 17 17 16 16 16 15 15 15 15 15 15
21 19 19 19 18 19 21 22 22 21 21 22 22 22 22 22 21 21 20 20 20 19 19 19 19 19 19 19 19 19 18 18 17 17 17 16 16 16 15 15 15 15 15 14
20 20 19 18 18 18 20 22 22 22 20 22 22 21 21 21 20 20 20 19 19 19 19 19 19 19 19 19 19 18 18 18 17 17 17 16 16 16 15 15 15 15 14 14
18 18 18 18 18 19 20 21 21 20 20 21 21 21 21 20 20 20 19 19 18 18 18 18 18 18 18 18 18 18 18 18 17 17 16 16 16 15 15 15 15 15 14 14
18 18 18 18 18 18 20 21 20 20 20 20 20 20 20 20 19 19 19 18 18 18 17 17 17 18 18 18 18 18 18 18 17 17 16 16 16 15 15 15 15 14 14 14
19 19 18 18 18 19 19 20 20 20 20 20 19 19 19 19 19 19 18 18 17 17 17 17 17 17 17 17 17 17 17 17 17 17 16 16 15 15 15 15 14 14 14 14
19 20 19 18 19 19 19 19 19 19 19 19 19 19 19 18 18 18 17 17 17 17 17 16 16 16 16 17 17 17 17 17 17 16 16 15 15 15 15 14 14 14 14 14
17 18 18 18 18 18 18 18 18 18 18 19 18 18 18 18 18 17 17 17 16 16 16 16 16 16 16 16 16 16 16 16 16 16 15 15 15 15 14 14 14 14 14 14
17 17 17 17 18 18 18 18 18 17 17 18 18 18 18 18 17 17 16 16 16 16 16 15 15 15 15 16 16 16 16 16 15 15 15 15 14 14 14 14 14 13 13 13
Wind_Speed
8 6 5 6 6 5 4 4 3 3 4 6 6 6 7 9 9 9 9 9 10 10 9 8 8 7 5 5 5 5 5 5 4 3 3 2 2 2 3 3 5 6 7 7
5 7 7 5 5 6 7 5 4 3 4 5 5 6 7 10 11 10 10 9 8 8 9 9 8 7 6 6 5 5 6 6 5 3 3 2 2 2 3 3 4 6 7 7
8 5 5 6 6 7 7 6 5 4 5 6 5 6 7 9 10 10 10 9 8 9 10 10 8 7 6 6 5 5 5 6 5 4 3 3 3 2 2 2 2 4 6 7
6 7 6 7 7 7 6 5 5 6 6 5 6 4 6 9 10 11 11 9 8 8 9 10 9 8 7 6 6 6 6 7 6 5 4 3 2 2 2 2 2 2 5 5
5 6 6 7 6 7 5 5 7 8 7 7 7 5 4 8 10 11 11 11 10 9 9 10 10 9 8 7 7 6 6 7 7 6 5 3 2 2 2 2 3 2 2 3
7 6 6 6 5 4 4 5 8 8 6 7 7 5 3 5 8 11 11 12 11 11 10 10 10 9 7 7 7 5 5 6 6 6 6 4 4 3 3 2 2 1 2 2
9 9 8 7 7 7 7 5 3 4 6 5 5 5 3 3 4 7 9 10 11 11 10 10 10 9 8 8 8 7 6 6 6 5 6 6 6 5 4 3 2 2 2 2
7 7 8 8 8 6 8 8 5 3 4 3 3 3 2 5 4 5 8 9 10 11 9 10 10 10 9 9 8 8 7 6 6 5 4 5 6 4 3 3 2 2 2 2
4 4 4 5 6 7 7 8 8 7 8 5 3 3 2 6 6 5 7 9 9 10 10 10 10 10 9 9 9 8 8 7 7 6 4 4 5 4 4 3 3 3 3 3
5 5 5 5 6 9 10 8 6 5 4 4 4 4 3 6 7 6 6 8 9 10 10 10 10 11 10 9 8 8 8 8 7 6 5 4 5 4 4 3 3 3 3 3
7 6 5 5 7 9 9 10 7 5 6 4 3 1 1 4 5 6 5 6 7 9 9 9 9 10 10 10 9 8 8 7 7 6 6 6 5 4 4 3 3 3 3 3
5 5 7 8 9 10 9 9 8 5 6 6 4 1 1 4 4 4 4 5 6 7 8 8 8 9 9 9 9 8 8 7 7 6 6 7 6 5 4 3 3 3 3 3
3 4 6 5 6 9 9 8 9 8 7 6 5 2 1 4 4 4 4 4 5 6 7 8 8 8 8 8 8 8 8 8 8 7 6 7 6 5 4 3 3 3 3 4
3 7 8 7 5 5 7 9 9 9 7 7 6 4 2 1 2 2 2 3 5 5 6 7 7 8 7 8 8 8 8 8 8 7 6 7 6 6 5 4 3 3 3 4
5 8 9 10 9 8 10 10 11 11 10 8 7 6 4 2 2 2 3 3 4 5 5 6 7 7 7 8 8 8 7 8 9 8 7 7 6 6 5 4 4 3 3 3
7 8 9 10 11 10 12 12 12 13 12 11 9 7 3 2 1 2 1 3 3 4 5 6 6 7 7 7 7 7 8 8 8 8 7 7 7 6 5 4 4 3 2 2
7 9 9 9 9 10 11 11 11 10 10 10 9 6 3 2 2 2 1 1 2 3 3 3 4 5 6 7 8 8 8 8 8 8 7 8 7 7 6 5 4 4 3 2
9 8 6 7 7 9 4 2 4 6 7 6 5 2 2 2 2 1 1 2 1 2 3 3 3 3 4 5 6 8 8 8 8 8 8 8 7 7 6 6 5 5 4 3
8 7 5 5 7 8 6 4 5 6 7 5 4 3 2 2 1 1 1 1 0 1 2 2 2 3 3 4 5 7 8 8 7 7 8 8 7 7 7 6 6 5 4 3
8 8 6 6 7 6 3 2 3 4 5 2 3 3 2 1 2 2 1 1 1 0 1 2 2 2 2 3 4 6 7 8 8 7 8 8 7 7 7 6 5 4 4 4
9 9 10 9 8 6 3 1 2 4 2 2 2 2 2 3 2 1 2 2 2 1 1 2 2 2 2 2 3 5 6 6 7 7 7 7 7 7 7 6 5 4 4 4
7 6 8 8 9 6 1 2 3 1 1 2 3 2 2 1 1 1 2 2 3 2 1 2 1 1 1 2 3 4 5 5 6 7 7 7 7 7 6 6 5 5 5 5
6 6 4 5 4 2 3 3 2 3 3 2 3 3 3 2 1 1 2 2 3 2 2 2 2 1 1 1 2 3 4 5 6 6 7 7 7 6 6 7 6 5 5 4
5 5 5 5 4 3 4 5 4 5 4 3 2 3 3 3 1 2 1 2 2 2 3 2 2 2 2 2 1 2 3 4 5 6 6 6 6 6 5 5 5 5 5 5
5 4 6 7 6 4 4 4 4 5 4 3 3 3 3 3 2 1 2 2 2 2 3 2 3 3 3 3 2 3 3 4 5 5 6 6 5 6 5 4 4 5 5 6
6 7 7 6 5 5 5 4 4 4 4 4 3 3 2 2 1 1 1 2 2 2 3 3 3 3 3 3 3 3 3 4 5 4 5 4 4 5 5 4 3 3 4 6
Wind_Direction
204 212 223 223 230 243 253 253 244 227 203 216 216 213 193 186 190 191 189 190 182 175 170 158 154 153 155 142 128 123 126 114 112 103 98 99 90 76 73 61 54 50 43 43
208 221 229 232 227 232 242 249 239 219 215 231 228 224 204 195 193 194 194 193 184 170 165 158 159 163 160 142 134 134 128 126 120 108 118 122 109 92 89 66 52 46 49 40
216 216 207 218 229 236 241 250 248 242 244 239 252 245 217 197 194 190 197 192 185 179 173 166 165 164 157 151 152 146 136 129 123 127 105 90 73 52 83 91 67 48 57 52
227 232 230 222 235 249 247 254 262 247 251 246 231 255 230 198 192 188 191 190 184 186 176 166 167 166 166 160 153 152 150 142 139 136 128 133 132 119 112 116 120 93 73 66
230 222 231 236 239 255 258 260 257 257 258 262 245 251 238 190 190 190 187 187 185 184 181 171 169 169 168 157 155 161 151 144 147 150 138 142 128 129 109 102 113 110 100 84
244 250 240 247 245 245 252 263 260 251 257 256 244 236 236 205 194 186 183 183 182 186 183 173 165 163 165 155 151 154 148 142 143 146 149 159 135 125 109 107 127 141 122 109
233 231 228 232 242 223 228 246 251 230 223 235 231 226 205 154 153 167 174 176 176 180 179 169 163 163 161 156 155 157 151 149 153 165 167 163 153 157 154 153 160 145 113 96
242 232 216 219 234 245 229 226 238 252 250 260 245 229 149 133 127 149 161 161 168 171 170 167 166 164 162 160 161 164 162 159 162 174 173 166 153 157 152 162 159 141 117 115
263 236 197 223 247 253 247 239 250 272 282 270 225 211 165 154 147 155 159 159 163 170 170 171 166 162 163 166 170 172 166 164 168 178 178 170 153 153 153 168 148 132 134 142
273 268 228 221 244 245 256 263 264 253 267 262 236 231 197 163 154 147 152 161 165 168 172 171 168 166 169 169 170 171 167 168 169 171 175 160 148 151 152 148 136 129 127 124
275 263 241 230 235 241 238 241 249 261 259 262 254 257 106 127 140 151 149 148 160 167 170 170 167 166 166 164 166 171 172 169 167 172 167 152 152 155 160 154 148 142 147 156
263 269 252 238 244 253 255 251 241 245 260 264 263 244 152 129 134 133 135 137 145 157 162 161 158 157 161 166 169 173 176 172 168 171 164 154 156 153 160 157 154 158 155 149
288 260 260 245 238 235 237 247 246 247 256 256 254 232 160 118 108 104 122 131 138 147 154 154 152 154 161 168 170 174 174 172 164 163 157 147 150 152 162 162 157 159 154 142
283 251 250 251 259 265 252 253 257 253 250 254 251 245 237 168 129 113 121 142 142 151 159 156 153 157 162 169 171 174 171 164 158 159 156 152 159 158 165 167 162 167 160 147
246 256 260 267 270 271 272 260 254 255 254 252 257 262 262 228 183 161 155 157 147 155 161 160 161 164 165 172 172 170 168 163 160 160 161 158 156 154 162 165 165 164 159 155
234 257 261 262 264 265 263 260 255 254 256 249 254 257 260 228 146 125 140 152 154 165 172 167 166 164 169 175 170 164 167 169 164 164 164 156 156 154 160 161 157 150 141 136
233 250 263 262 261 273 260 248 243 247 251 246 251 257 246 229 162 169 181 163 168 168 165 157 168 172 179 179 172 172 174 171 165 163 158 157 160 159 167 167 160 162 163 153
242 248 251 262 262 253 253 250 227 241 255 262 259 254 264 256 184 144 136 166 168 163 183 176 179 179 186 179 174 173 172 169 168 165 161 161 165 163 169 171 170 171 171 171
237 241 248 256 263 264 257 244 228 232 250 256 264 266 272 282 193 166 133 138 170 162 171 172 183 183 177 177 171 169 170 168 168 167 165 165 166 165 169 175 176 175 175 175
221 234 241 246 257 259 252 229 241 240 241 265 270 265 260 249 229 212 181 142 129 62 144 157 169 178 169 167 164 166 171 170 172 168 166 164 166 167 174 177 176 177 177 179
210 223 232 246 252 259 280 267 193 229 243 335 284 277 259 241 270 192 159 130 126 113 131 140 147 167 171 163 158 168 170 172 168 160 159 160 165 170 173 171 171 176 178 179
220 223 227 237 245 248 272 205 210 272 17 337 316 307 302 319 315 144 134 121 126 122 131 136 141 149 155 161 163 171 172 162 151 152 156 162 166 171 170 161 171 175 174 179
229 232 235 232 236 301 325 289 300 324 301 305 318 320 314 302 271 151 151 155 153 155 156 151 149 158 161 180 178 171 161 147 145 149 155 160 165 166 162 164 173 175 177 183
258 264 249 247 249 261 300 315 311 311 319 317 304 298 299 295 270 159 166 175 174 166 160 163 176 190 191 192 187 171 153 149 149 156 160 162 161 162 165 167 174 179 188 191
275 280 265 261 272 286 285 304 320 324 322 310 283 266 263 273 273 196 195 198 193 174 160 178 198 201 202 189 193 169 163 165 164 164 164 163 163 165 166 166 180 186 194 195
252 256 258 259 264 266 272 289 302 313 313 305 295 285 272 271 248 239 220 200 191 185 174 182 201 204 202 195 195 173 173 173 172 173 169 166 167 166 167 167 171 189 197 186
Height
1505 1508 1510 1507 1505 1505 1507 1510 1513 1510 1507 1510 1513 1515 1515 1517 1520 1522 1524 1526 1528 1531 1534 1536 1538 1541 1543 1544 1545 1547 1548 1549 1550 1551 1552 1553 1553 1554 1554 1555 1555 1555 1555 1556
1506 1508 1504 1502 1502 1504 1506 1511 1512 1509 1505 1508 1511 1512 1511 1513 1516 1518 1520 1523 1525 1528 1532 1535 1537 1539 1541 1543 1545 1546 1548 1549 1550 1551 1552 1553 1554 1554 1554 1555 1555 1555 1556 1556
1506 1503 1501 1502 1504 1506 1507 1510 1510 1511 1507 1506 1510 1514 1510 1509 1511 1515 1518 1520 1523 1526 1529 1532 1535 1538 1540 1542 1544 1546 1547 1548 1549 1550 1552 1553 1554 1554 1555 1555 1555 1555 1556 1556
1501 1500 1500 1502 1504 1504 1510 1504 1505 1507 1513 1515 1512 1524 1511 1505 1508 1510 1514 1517 1520 1523 1526 1530 1533 1536 1539 1541 1543 1545 1547 1548 1549 1550 1551 1552 1553 1554 1555 1555 1555 1556 1556 1556
1501 1499 1501 1503 1502 1502 1504 1502 1504 1506 1509 1513 1509 1517 1512 1501 1506 1507 1510 1513 1517 1521 1524 1527 1531 1534 1537 1540 1542 1544 1546 1547 1548 1550 1551 1552 1553 1554 1555 1555 1556 1556 1556 1556
1499 1498 1498 1499 1499 1500 1502 1504 1505 1505 1511 1522 1509 1513 1514 1501 1500 1501 1505 1509 1513 1518 1521 1525 1529 1532 1535 1538 1540 1542 1544 1546 1547 1549 1550 1551 1552 1553 1554 1555 1555 1556 1556 1556
1502 1498 1496 1498 1501 1501 1503 1514 1524 1525 1526 1519 1500 1505 1505 1493 1492 1496 1500 1505 1510 1514 1518 1522 1526 1529 1533 1535 1538 1541 1543 1544 1546 1548 1549 1550 1551 1552 1553 1554 1555 1556 1556 1556
1507 1505 1496 1496 1499 1502 1502 1508 1524 1531 1525 1513 1500 1504 1497 1489 1491 1494 1498 1502 1507 1511 1516 1520 1523 1527 1530 1533 1536 1539 1541 1543 1545 1546 1548 1549 1550 1552 1553 1554 1554 1555 1556 1556
1505 1504 1494 1495 1496 1498 1502 1503 1501 1510 1510 1514 1506 1499 1493 1489 1491 1494 1497 1501 1505 1509 1513 1517 1521 1524 1528 1531 1534 1537 1539 1541 1543 1545 1547 1548 1549 1551 1552 1553 1554 1555 1555 1556
1500 1506 1497 1495 1497 1496 1496 1497 1502 1510 1520 1522 1512 1505 1502 1493 1492 1493 1496 1499 1503 1507 1511 1515 1519 1522 1526 1529 1532 1535 1537 1539 1541 1543 1545 1546 1547 1549 1551 1552 1553 1554 1555 1555
1499 1505 1502 1499 1500 1499 1498 1499 1500 1503 1505 1517 1522 1512 1488 1489 1490 1492 1495 1498 1501 1505 1509 1513 1516 1520 1524 1527 1530 1533 1536 1538 1540 1541 1543 1545 1546 1548 1550 1551 1552 1553 1554 1554
1500 1503 1505 1499 1493 1491 1493 1495 1499 1512 1510 1504 1510 1509 1484 1486 1489 1491 1495 1498 1501 1504 1508 1511 1515 1518 1522 1525 1528 1531 1533 1536 1538 1540 1541 1543 1545 1546 1548 1549 1551 1552 1553 1554
1501 1505 1511 1508 1502 1494 1493 1493 1494 1498 1503 1506 1512 1508 1485 1486 1489 1492 1495 1498 1500 1503 1507 1510 1513 1516 1520 1523 1526 1529 1531 1534 1536 1538 1540 1541 1543 1544 1546 1548 1549 1550 1552 1553
1503 1503 1507 1512 1503 1497 1497 1495 1494 1498 1505 1505 1503 1500 1492 1490 1491 1494 1496 1498 1500 1503 1506 1508 1511 1514 1518 1521 1523 1526 1529 1531 1533 1535 1538 1539 1541 1542 1544 1546 1548 1549 1550 1552
1500 1502 1498 1495 1492 1492 1494 1494 1494 1496 1496 1501 1498 1496 1492 1490 1491 1493 1495 1497 1499 1502 1505 1507 1510 1513 1516 1519 1521 1524 1526 1529 1531 1533 1535 1537 1539 1541 1543 1544 1546 1548 1549 1550
1497 1499 1497 1496 1491 1491 1493 1491 1491 1492 1492 1491 1492 1493 1489 1489 1491 1492 1495 1496 1498 1501 1503 1505 1508 1511 1514 1517 1519 1521 1524 1526 1528 1531 1533 1535 1537 1539 1541 1542 1544 1546 1547 1548
1495 1497 1500 1500 1492 1493 1496 1487 1486 1488 1487 1487 1491 1490 1488 1489 1490 1492 1494 1496 1498 1500 1502 1504 1506 1509 1511 1514 1516 1518 1521 1524 1526 1528 1530 1532 1534 1536 1538 1540 1542 1543 1545 1546
1492 1495 1497 1498 1498 1505 1489 1478 1480 1484 1484 1483 1483 1485 1486 1488 1490 1492 1493 1495 1497 1499 1500 1502 1504 1506 1509 1511 1514 1516 1519 1521 1523 1526 1528 1530 1532 1534 1536 1538 1539 1541 1542 1544
1488 1493 1497 1499 1500 1493 1482 1478 1478 1483 1484 1481 1483 1484 1485 1487 1488 1490 1492 1493 1496 1497 1499 1500 1502 1504 1506 1508 1511 1513 1516 1518 1520 1523 1525 1527 1529 1531 1533 1534 1536 1538 1540 1541
1487 1489 1496 1498 1502 1499 1485 1476 1476 1480 1485 1480 1481 1483 1484 1485 1489 1491 1491 1492 1494 1495 1497 1498 1500 1502 1504 1506 1508 1510 1512 1515 1517 1519 1521 1523 1526 1528 1529 1531 1533 1535 1537 1538
1489 1490 1494 1495 1496 1489 1479 1475 1477 1488 1487 1480 1480 1482 1483 1484 1486 1489 1489 1491 1492 1493 1495 1496 1498 1500 1502 1504 1506 1507 1509 1511 1514 1516 1518 1520 1522 1524 1526 1528 1530 1532 1534 1536
1485 1487 1489 1490 1494 1491 1477 1476 1479 1481 1479 1480 1480 1481 1482 1483 1484 1486 1488 1489 1490 1491 1493 1494 1496 1497 1499 1501 1503 1505 1507 1509 1511 1513 1515 1517 1519 1521 1523 1525 1527 1529 1531 1532
1479 1480 1481 1483 1484 1479 1476 1477 1477 1478 1478 1479 1480 1481 1481 1482 1483 1484 1486 1487 1488 1490 1491 1493 1494 1496 1497 1499 1501 1503 1505 1507 1509 1511 1512 1514 1516 1519 1520 1522 1524 1525 1527 1529
1475 1475 1476 1477 1477 1476 1477 1476 1476 1476 1477 1477 1478 1480 1480 1481 1481 1482 1484 1485 1486 1488 1489 1490 1492 1494 1495 1497 1498 1500 1502 1504 1506 1508 1510 1512 1514 1515 1517 1519 1520 1522 1523 1525
1477 1476 1476 1476 1475 1475 1475 1475 1475 1475 1475 1475 1476 1477 1478 1479 1480 1480 1482 1483 1484 1485 1487 1488 1490 1491 1493 1494 1496 1498 1499 1501 1503 1505 1507 1509 1510 1512 1514 1515 1517 1518 1519 1521
1476 1477 1476 1475 1474 1475 1474 1473 1473 1473 1473 1474 1474 1475 1476 1477 1477 1478 1479 1480 1481 1483 1484 1486 1487 1489 1490 1492 1493 1495 1497 1499 1500 1502 1504 1506 1507 1509 1510 1512 1513 1515 1516 1518